Location: Chevoux
(46.3801°N, 4.9476°E)
Time: 21:52:01
(UTC+00:00)

NOSS 2-2 (C) - Pass Details

Date: 28 January 2021
Orbit: 463 x 1745 km, 63.3° (Epoch: 03 March)

Event Time Altitude Azimuth Distance (km) Brightness Sun altitude
Rises 19:12:28 0° 321° (NW) 3,103 7.7 -26.5°
Reaches altitude 10° 19:14:32 10° 324° (NW) 2,322 6.9 -26.8°
Maximum altitude 19:19:55 75° 50° (NE) 999 4.3 -27.8°
Enters shadow 19:20:07 74° 68° (ENE) 1,009 4.3 -27.8°
